Location: Unspecified
(0.0000°N, 0.0000°E)
Time: 14:44:19
(UTC+00:00)

SHIYAN 30 01 - Visible Passes

Search period start: 13 November 2025 00:00
Search period end: 23 November 2025 00:00
Orbit: 584 x 592 km, 35.0° (Epoch: 13 November)

Date Brightness Start Highest point End Pass type
(mag) Time Alt. Az. Time Alt. Az. Time Alt. Az.
13 Nov ? 04:13:26 38° SW 04:15:01 77° SE 04:19:25 10° ENE visible
14 Nov ? 04:20:50 49° NW 04:21:10 51° NW 04:25:25 10° NE visible
15 Nov ? 04:28:04 24° NNW 04:28:04 24° NNW 04:30:58 10° NNE visible
16 Nov ? 04:35:05 12° NNW 04:35:05 12° NNW 04:35:46 10° N visible
